Deming, NM

12:59 PM MST on November 20, 2017 (GMT -0700)
Deming Municipal

Weather History for KDMN - July, 2014

Change the Weather History Date:

Thursday, July 24, 2014

  Actual Average Record
Temperature  
Mean Temperature 82 °F 80 °F  
Max Temperature 96 °F 94 °F 107 °F (1963)
Min Temperature 68 °F 67 °F 56 °F (1988)
Cooling Degree Days 18    
Growing Degree Days 32 (Base 50)    
Moisture  
Dew Point 48 °F    
Average Humidity 34    
Maximum Humidity 51    
Minimum Humidity 16    
Precipitation  
Precipitation 0.00 in 0.08 in 0.61 in (1951)
Month to date precipitation 1.39 1.66  
Year to date precipitation 1.99 4.77  
Sea Level Pressure  
Sea Level Pressure 29.92 in    
Wind  
Wind Speed 9 mph (ESE)    
Max Wind Speed 18 mph    
Max Gust Speed 30 mph    
Visibility 10 miles    
Events      
T = Trace of Precipitation, MM = Missing Value Source: NWS Daily Summary

Daily Weather History Graph

Daily Weather History Graph

Search for Another Location

Airport or City:

Trip Planner

Search our weather history database for the weather conditions in past years. The results will help you decide how hot, cold, wet, or windy it might be!

Date:

Astronomy

Jul. 24, 2014 Rise Set
Actual Time 6:20 AM MDT 8:13 PM MDT
Civil Twilight 5:53 AM MDT 8:41 PM MDT
Nautical Twilight 5:20 AM MDT 9:13 PM MDT
Astronomical Twilight 4:45 AM MDT 9:48 PM MDT
Moon 4:29 AM MDT (7/24) 6:32 PM MDT (7/24)
Length of Visible Light 14h 47m
Length of Day
13h 53m
Waning Crescent, 4% of the Moon is Illuminated
Jul 24
Waning Crescent
Jul 26
New
Aug 3
First Quarter
Aug 10
Full
Aug 17
Last Quarter

Hourly Weather History & Observations

Time (MDT) Temp. Dew Point Humidity Pressure Visibility Wind Dir Wind Speed Gust Speed Precip Events Conditions
12:53 AM 75.0 °F 50.0 °F 41% 29.96 in 10.0 mi ENE 6.9 mph - N/A   Clear
1:53 AM 73.0 °F 50.0 °F 44% 29.95 in 10.0 mi ENE 8.1 mph - N/A   Clear
2:53 AM 73.0 °F 48.9 °F 42% 29.93 in 10.0 mi ENE 10.4 mph - N/A   Clear
3:53 AM 70.0 °F 48.9 °F 47% 29.94 in 10.0 mi ENE 9.2 mph - N/A   Clear
4:53 AM 71.1 °F 48.9 °F 45% 29.94 in 10.0 mi NNW 5.8 mph - N/A   Clear
5:53 AM 70.0 °F 50.0 °F 49% 29.95 in 10.0 mi ENE 9.2 mph - N/A   Clear
6:53 AM 71.1 °F 50.0 °F 47% 29.96 in 10.0 mi ENE 10.4 mph - N/A   Clear
7:53 AM 75.0 °F 50.0 °F 41% 29.97 in 10.0 mi ENE 11.5 mph - N/A   Clear
8:53 AM 79.0 °F 51.1 °F 38% 29.99 in 10.0 mi East 10.4 mph - N/A   Clear
9:53 AM 82.9 °F 52.0 °F 34% 29.98 in 10.0 mi East 9.2 mph - N/A   Clear
10:53 AM 87.1 °F 50.0 °F 28% 29.97 in 10.0 mi East 12.7 mph 17.3 mph N/A   Clear
11:53 AM 90.0 °F 48.0 °F 24% 29.95 in 10.0 mi SE 16.1 mph 20.7 mph N/A   Clear
12:53 PM 91.9 °F 48.0 °F 22% 29.92 in 10.0 mi SSE 15.0 mph 21.9 mph N/A   Partly Cloudy
1:53 PM 91.9 °F 46.0 °F 21% 29.91 in 10.0 mi SSE 9.2 mph 23.0 mph N/A   Partly Cloudy
2:53 PM 93.0 °F 46.0 °F 20% 29.89 in 10.0 mi SE 9.2 mph - N/A   Clear
3:20 PM 93.9 °F 44.1 °F 18% 30.13 in 10.0 mi East 8.1 mph 23.0 mph N/A   Clear
3:53 PM 95.0 °F 45.0 °F 18% 29.87 in 10.0 mi SE 8.1 mph 21.9 mph N/A   Scattered Clouds
4:53 PM 95.0 °F 43.0 °F 17% 29.85 in 10.0 mi South 8.1 mph 18.4 mph N/A   Partly Cloudy
5:53 PM 93.9 °F 43.0 °F 17% 29.82 in 10.0 mi South 9.2 mph 20.7 mph N/A   Clear
6:53 PM 93.0 °F 42.1 °F 17% 29.82 in 10.0 mi SE 6.9 mph - N/A   Clear
7:53 PM 90.0 °F 44.1 °F 20% 29.82 in 10.0 mi South 4.6 mph - N/A   Clear
8:53 PM 86.0 °F 46.0 °F 25% 29.84 in 10.0 mi SW 4.6 mph - N/A   Partly Cloudy
9:53 PM 82.0 °F 48.9 °F 31% 29.86 in 10.0 mi SW 4.6 mph - N/A   Clear
10:53 PM 78.1 °F 51.1 °F 39% 29.88 in 10.0 mi North 5.8 mph - N/A   Partly Cloudy
11:53 PM 77.0 °F 48.0 °F 36% 29.87 in 10.0 mi North 4.6 mph - N/A   Scattered Clouds